Location: Gleizolles
(44.4833°N, 6.7667°E)
Time: 03:26:46
(UTC+00:00)

X-37B - Pass Details

Date: 05 December 2021
Orbit: 334 x 337 km, 45.0° (Epoch: 11 January)

Event Time Altitude Azimuth Distance (km) Brightness Sun altitude
Rises 18:07:30 0° 221° (SW) 2,093 5.1 -23.1°
Reaches altitude 10° 18:09:43 10° 205° (SSW) 1,260 3.6 -23.5°
Enters shadow 18:09:56 11° 203° (SSW) 1,192 3.4 -23.6°
